Date,TemperatureHighF,TemperatureAvgF,TemperatureLowF,DewpointHighF,DewpointAvgF,DewpointLowF,HumidityHigh,HumidityAvg,HumidityLow,PressureMaxIn,PressureMinIn,WindSpeedMaxMPH,WindSpeedAvgMPH,GustSpeedMaxMPH,PrecipitationSumIn
2014-2-1,60,45,32,-100,-100,-100,0,0,100,0.00,40.00,0,-999,0,0.00
2014-2-2,50,44,40,-100,-100,-100,0,0,100,0.00,40.00,0,-999,0,0.00
2014-2-3,58,46,37,-100,-100,-100,0,0,100,0.00,40.00,0,-999,0,0.00
2014-2-4,58,42,28,-100,-100,-100,0,0,100,0.00,40.00,0,-999,0,0.00
2014-2-5,53,45,29,-100,-100,-100,0,0,100,0.00,40.00,0,-999,0,0.00
2014-2-6,49,47,43,-100,-100,-100,0,0,100,0.00,40.00,0,-999,0,0.02
2014-2-7,51,49,47,-100,-100,-100,0,0,100,0.00,40.00,0,-999,0,0.01
2014-2-8,55,52,50,-100,-100,-100,0,0,100,0.00,40.00,0,-999,0,0.04
2014-2-9,58,56,55,-100,-100,-100,0,0,100,0.00,40.00,0,-999,0,0.04
2014-2-10,64,56,51,-100,-100,-100,0,0,100,0.00,40.00,0,-999,0,0.01
2014-2-11,63,52,46,-100,-100,-100,0,0,100,0.00,40.00,0,-999,0,0.00
2014-2-12,64,55,47,-100,-100,-100,0,0,100,0.00,40.00,0,-999,0,0.09
2014-2-13,70,60,53,-100,-100,-100,0,0,100,0.00,40.00,0,-999,0,0.00
2014-2-14,66,59,54,-100,-100,-100,0,0,100,0.00,40.00,0,-999,0,0.00
2014-2-15,61,57,53,-100,-100,-100,0,0,100,0.00,40.00,0,-999,0,0.00
2014-2-16,66,54,43,-100,-100,-100,0,0,100,0.00,40.00,0,-999,0,0.00
2014-2-17,63,46,38,-100,-100,-100,0,0,100,0.00,40.00,0,-999,0,0.00
2014-2-18,58,46,40,-100,-100,-100,0,0,100,0.00,40.00,0,-999,0,0.00
2014-2-19,62,55,50,-100,-100,-100,0,0,100,0.00,40.00,0,-999,0,0.00
2014-2-20,66,53,42,-100,-100,-100,0,0,100,0.00,40.00,0,-999,0,0.00
2014-2-21,71,55,39,-100,-100,-100,0,0,100,0.00,40.00,0,-999,0,0.00
2014-2-22,70,54,36,-100,-100,-100,0,0,100,0.00,40.00,0,-999,0,0.00
2014-2-23,75,56,36,-100,-100,-100,0,0,100,0.00,40.00,0,-999,0,0.00
2014-2-24,75,58,41,-100,-100,-100,0,0,100,0.00,40.00,0,-999,0,0.00
2014-2-25,73,58,43,-100,-100,-100,0,0,100,0.00,40.00,0,-999,0,0.00
2014-2-26,62,56,52,-100,-100,-100,0,0,100,0.00,40.00,0,-999,0,0.01
2014-2-27,64,56,50,-100,-100,-100,0,0,100,0.00,40.00,0,-999,0,0.01
2014-2-28,57,53,52,-100,-100,-100,0,0,100,0.00,40.00,0,-999,0,0.02